{"data":{"norad_id":59240,"epoch":"2026-09-19T01:02:24.370368Z","epoch_age_seconds":284671,"freshness":"STALE","line1":"1 59240U 24049K   26262.04333762  .00000485  00000+0  27146-4 0  9995","line2":"2 59240  43.0043 131.8679 0001080 274.3186  85.7543 15.27573736141971","mean_motion":15.27573736,"eccentricity":0.000108,"inclination_deg":43.0043,"raan_deg":131.8679,"arg_perigee_deg":274.3186,"mean_anomaly_deg":85.7543,"bstar":2.7146e-5,"rev_number":14197,"period_min":94.267135265803,"perigee_km":482.32684264911,"apogee_km":483.80886289731,"semimajor_km":6861.2048527732,"source":"CELESTRAK","updated_at":"2026-09-21T09:00:34.076093Z"}}